(70) Panopaea
ephemeris date magn radius delta ra dec elong phase
Today16 Sep 202513.62.818 AU3.811 AU12h01m+06°53'7.9°2.8°
Opposition16 May 202610.92.361 AU1.351 AU15h29m-21°46'177.2°1.2°
(70) Panopaea - 2025-09-16
astro.vanbuitenen.nl


 
-1 year
-1 month
-1 day
Now
+1 day
+1 month
+1 year

The interactive orbit chart above shows the body's path through the solar system and its position at the given date. Green and blue lines are shown perpendicular to the ecliptic plane: Green if the path is above the ecliptic plane, blue if it is below. (Left-click and drag to rotate the view; Right-click and drag to move the view; Use scroll wheel to zoom in our out.)

The orbital elements of Panopaea are:

            e (Eccentricity)                : 0.1829741
            a (Semimajor axis)              : 2.6134175
            i (Inclination)                 : 11.59683
            Ω (Longitude of ascending node) : 47.63859
            ω (Argument of perihelion)      : 255.47152
            M (Mean anomaly)                : 222.87281
            Epoch                           : 2025 May 05

            L (Longitude of perihelion)     : 122.82054
            B (Latitude of perihelion)      : -11.22110
            P (Orbital period in years)     : 4.22            
        

The light curve chart below shows the estimated development of the minor planet's magnitude.


The all-sky chart below shows the path of the minor planet over the same period as the light curve. The current position is marked yellow.





The following chart shows the path of the minor planet in the next few days. The field of view is optimized for (~10x50) binoculars and finderscopes. A more printer-friendly version of the same chart can be found below.




Ephemerides:
Date       Time       RA (2000)    DEC (2000)    delta   radius  elong  phase   PA    magn
2025-09-16 00:00 UT   12 01 18.8   +06 53 13     3.811    2.818    7.9    2.8    59   13.6 
2025-09-16 19:36 UT   12 02 29.5   +06 44 22     3.810    2.817    7.6    2.7    56   13.6 
2025-09-17 00:00 UT   12 02 45.4   +06 42 23     3.810    2.816    7.5    2.7    55   13.6 
2025-09-18 00:00 UT   12 04 12.2   +06 31 34     3.809    2.815    7.2    2.6    51   13.6 
2025-09-19 00:00 UT   12 05 39.1   +06 20 44     3.808    2.813    7.0    2.5    47   13.6 
2025-09-20 00:00 UT   12 07 06.1   +06 09 55     3.807    2.812    6.7    2.4    43   13.6 
2025-09-21 00:00 UT   12 08 33.1   +05 59 05     3.805    2.810    6.6    2.3    38   13.6 
2025-09-22 00:00 UT   12 10 00.3   +05 48 15     3.804    2.808    6.4    2.3    33   13.6 
2025-09-23 00:00 UT   12 11 27.5   +05 37 26     3.802    2.807    6.3    2.3    28   13.6 
2025-09-24 00:00 UT   12 12 54.8   +05 26 36     3.800    2.805    6.3    2.2    23   13.6 
2025-09-25 00:00 UT   12 14 22.1   +05 15 47     3.798    2.803    6.3    2.2    18   13.6 
2025-09-26 00:00 UT   12 15 49.6   +05 04 57     3.796    2.802    6.4    2.3    13   13.6 
2025-09-27 00:00 UT   12 17 17.1   +04 54 08     3.794    2.800    6.5    2.3     7   13.6 
2025-09-28 00:00 UT   12 18 44.7   +04 43 20     3.791    2.798    6.6    2.4     3   13.6 
2025-09-29 00:00 UT   12 20 12.3   +04 32 31     3.789    2.797    6.8    2.4   358   13.6 
2025-09-30 00:00 UT   12 21 40.1   +04 21 43     3.786    2.795    7.1    2.5   354   13.6 
2025-10-01 00:00 UT   12 23 07.9   +04 10 55     3.783    2.793    7.4    2.6   350   13.6 
2025-10-02 00:00 UT   12 24 35.7   +04 00 07     3.780    2.791    7.7    2.7   346   13.6 
2025-10-03 00:00 UT   12 26 03.6   +03 49 20     3.777    2.790    8.0    2.9   343   13.6 
2025-10-04 00:00 UT   12 27 31.6   +03 38 33     3.774    2.788    8.4    3.0   340   13.6 
2025-10-05 00:00 UT   12 28 59.7   +03 27 47     3.771    2.786    8.8    3.1   337   13.6 
2025-10-06 00:00 UT   12 30 27.8   +03 17 01     3.767    2.785    9.2    3.3   334   13.6 


    Terminology:
            
    delta:  distance between minor planet and earth in AU
    radius: distance between minor planet and sun in AU
    magn:   magnitude (brightness) estimate    
    ra:     right ascension in hours (24h = 360deg)
    dec:    declination in degrees
    elong:  elongation in degrees (angle sun-earth-minor planet)    
    phase:  phase angle in degrees (angle sun-minor planet-earth)        
    AU:     Astronomical Unit (mean distance between earth and sun: 149597870.7 km
    

Orbital elements provided by the MPC (Minor Planet Center).
Calculations by a modified version of AAPlus, a C# implementation of the AA+ project by PJ Naughter from the algorithms presented in the book "Astronomical Algorithms" by Jean Meeus.
NGC2000 dso catalog and star labels from VizieR as provided by the Strasbourg astronomical Data Center.
Tycho2 catalog from the ESO archive.